Starlink 11482

operational
NORAD ID: 62520 Int'l Des: 2025-004 Owner: SPXS Country: US Constellation: starlink
LEOCIRCULAR

Starlink 11482について

説明を読み込み中...

リアルタイム位置

3D地球を読み込み中...

次回通過

高度履歴

Altitude vs Time

uPlot chart will show altitude changes over time

軌道要素

1 62520U 25004K 25308.56738586 .00219544 00000-0 16714-2 0 9998
2 62520 42.9989 104.6008 0001745 236.1469 123.9232 15.70814539 47539
Epoch: Nov 4, 2025 • Age: 8 hours

現在のステータス

高度 360.3 km
速度 7.70 km/s
衛星直下点 43.09°N, 179.91°W
打ち上げ日 Jan 8, 2025
運用期間 0.8 years
タイプ internet

技術仕様

分類 Payload
質量 960.00 kg
乾燥質量 910.00 kg
総質量 960.00 kg
長さ 0.30 m
直径 4.10 m
スパン 29.00 m
形状 Box + pan
製造者 SPXS
バスタイプ Starlink V2MD
フェーズステータス In Orbit
所有者/国 SPXS/US

大規模コンステレーション

Loading constellations...